Torna al catalogo

STARLINK-31608

AttivoComunicazioniVLEO
NORAD 59397·PAYLOAD·🇺🇸 United States

Lanciato Apr 2, 2024 da Vandenberg Space Force Base

Loading…

Prossimi Passaggi (prossime 24 ore)

TLE

AggiornatoSource: CelesTrak SupGP

Epoca: Sep 15, 2026, 02:48 UTC

1 59397C 24062X   26258.11715278 -.00010950  00000+0 -32356-3 0  2588
2 59397  53.1578  93.1418 0000745  77.6647 186.3693 15.34393602    16

Traccia STARLINK-31608 in tempo reale con AllMySat

Download on the App Store